Time,TemperatureF,DewpointF,PressureIn,WindDirection,WindDirectionDegrees,WindSpeedMPH,WindSpeedGustMPH,Humidity,HourlyPrecipIn,Conditions,Clouds,dailyrainin,SoftwareType,DateUTC
2013-01-06 00:01:00,27.7,20.8,30.16,WSW,248,1.6,1.6,75,0.00,,CLR,0.00,VWS V14.01,2013-01-06 06:01:00,
2013-01-06 00:10:00,27.7,20.8,30.17,NNW,338,1.8,1.8,75,0.00,,CLR,0.00,VWS V14.01,2013-01-06 06:10:00,
2013-01-06 00:15:00,27.7,20.8,30.17,West,270,1.1,2.5,75,0.00,,CLR,0.00,VWS V14.01,2013-01-06 06:15:00,
2013-01-06 00:20:00,27.7,20.8,30.17,NNW,338,0.2,1.8,75,0.00,,CLR,0.00,VWS V14.01,2013-01-06 06:20:00,
2013-01-06 00:25:00,27.7,20.8,30.16,West,270,0.4,0.9,75,0.00,,CLR,0.00,VWS V14.01,2013-01-06 06:25:00,
2013-01-06 00:30:00,27.5,20.6,30.17,WNW,292,0.7,1.6,75,0.00,,CLR,0.00,VWS V14.01,2013-01-06 06:30:00,
2013-01-06 00:35:00,27.5,20.6,30.17,NNW,338,0.2,1.8,75,0.00,,CLR,0.00,VWS V14.01,2013-01-06 06:35:00,
2013-01-06 00:40:00,27.3,20.4,30.17,NW,315,0.0,0.9,75,0.00,,CLR,0.00,VWS V14.01,2013-01-06 06:40:00,
2013-01-06 00:45:00,27.3,20.4,30.17,NW,315,0.4,0.4,75,0.00,,CLR,0.00,VWS V14.01,2013-01-06 06:45:00,
2013-01-06 00:50:00,27.1,20.2,30.17,NW,315,0.9,0.9,75,0.00,,CLR,0.00,VWS V14.01,2013-01-06 06:50:00,
2013-01-06 00:55:00,26.9,20.4,30.17,WNW,292,0.4,2.0,76,0.00,,CLR,0.00,VWS V14.01,2013-01-06 06:55:00,
2013-01-06 01:01:00,26.9,20.4,30.17,NNW,338,0.0,0.0,76,0.00,,CLR,0.00,VWS V14.01,2013-01-06 07:01:00,
2013-01-06 01:10:00,26.9,20.0,30.18,NW,315,0.0,1.8,75,0.00,,CLR,0.00,VWS V14.01,2013-01-06 07:10:00,
2013-01-06 01:15:00,26.8,20.0,30.18,North,0,0.0,1.1,75,0.00,,CLR,0.00,VWS V14.01,2013-01-06 07:15:00,
2013-01-06 01:20:00,26.8,20.0,30.18,NNW,338,0.2,1.6,75,0.00,,CLR,0.00,VWS V14.01,2013-01-06 07:20:00,
2013-01-06 01:25:00,26.8,20.0,30.18,North,0,0.0,0.4,75,0.00,,CLR,0.00,VWS V14.01,2013-01-06 07:25:00,
2013-01-06 01:30:00,26.8,20.0,30.18,North,0,1.1,1.1,75,0.00,,CLR,0.00,VWS V14.01,2013-01-06 07:30:00,
2013-01-06 01:35:00,26.8,20.0,30.19,NE,45,1.3,2.5,75,0.00,,CLR,0.00,VWS V14.01,2013-01-06 07:35:00,
2013-01-06 01:40:00,26.9,20.0,30.19,NNE,22,0.4,1.3,75,0.00,,CLR,0.00,VWS V14.01,2013-01-06 07:40:00,
2013-01-06 01:45:00,27.1,20.2,30.20,NW,315,0.9,0.9,75,0.00,,CLR,0.00,VWS V14.01,2013-01-06 07:45:00,
2013-01-06 01:50:00,27.1,20.2,30.20,WNW,292,1.8,2.7,75,0.00,,CLR,0.00,VWS V14.01,2013-01-06 07:50:00,
2013-01-06 01:55:00,26.9,20.0,30.20,NNE,22,0.4,2.5,75,0.00,,CLR,0.00,VWS V14.01,2013-01-06 07:55:00,
2013-01-06 02:01:00,26.9,20.0,30.20,NNW,338,0.4,0.4,75,0.00,,CLR,0.00,VWS V14.01,2013-01-06 08:01:00,
2013-01-06 02:10:00,26.9,20.0,30.20,NNW,338,1.1,2.5,75,0.00,,CLR,0.00,VWS V14.01,2013-01-06 08:10:00,
2013-01-06 02:15:00,27.1,20.2,30.20,NNW,338,0.9,2.7,75,0.00,,CLR,0.00,VWS V14.01,2013-01-06 08:15:00,
2013-01-06 02:20:00,26.9,20.0,30.20,ENE,68,0.2,3.1,75,0.00,,CLR,0.00,VWS V14.01,2013-01-06 08:20:00,
2013-01-06 02:25:00,26.9,20.0,30.21,North,0,1.3,1.8,75,0.00,,CLR,0.00,VWS V14.01,2013-01-06 08:25:00,
2013-01-06 02:30:00,26.8,20.0,30.21,NNE,22,0.4,1.3,75,0.00,,CLR,0.00,VWS V14.01,2013-01-06 08:30:00,
2013-01-06 02:35:00,26.8,20.0,30.21,NNE,22,0.9,2.9,75,0.00,,CLR,0.00,VWS V14.01,2013-01-06 08:35:00,
2013-01-06 02:40:00,26.8,20.0,30.21,NE,45,0.4,1.3,75,0.00,,CLR,0.00,VWS V14.01,2013-01-06 08:40:00,
2013-01-06 02:45:00,26.6,19.8,30.22,ENE,68,0.7,1.8,75,0.00,,CLR,0.00,VWS V14.01,2013-01-06 08:45:00,
2013-01-06 02:50:00,26.4,19.6,30.22,ENE,68,1.8,1.8,75,0.00,,CLR,0.00,VWS V14.01,2013-01-06 08:50:00,
2013-01-06 02:55:00,26.4,19.6,30.22,ENE,68,1.1,2.7,75,0.00,,CLR,0.00,VWS V14.01,2013-01-06 08:55:00,
2013-01-06 03:01:00,26.2,19.4,30.22,NNE,22,0.2,0.4,75,0.00,,CLR,0.00,VWS V14.01,2013-01-06 09:01:00,
2013-01-06 03:10:00,26.0,19.2,30.23,NNW,338,1.1,1.6,75,0.00,,CLR,0.00,VWS V14.01,2013-01-06 09:10:00,
2013-01-06 03:15:00,25.9,19.1,30.23,WNW,292,2.0,2.0,75,0.00,,CLR,0.00,VWS V14.01,2013-01-06 09:15:00,
2013-01-06 03:20:00,25.7,18.9,30.23,North,0,0.9,2.0,75,0.00,,CLR,0.00,VWS V14.01,2013-01-06 09:20:00,
2013-01-06 03:25:00,25.5,18.7,30.23,NW,315,1.1,1.1,75,0.00,,CLR,0.00,VWS V14.01,2013-01-06 09:25:00,
2013-01-06 03:30:00,25.3,18.5,30.23,NNE,22,0.2,2.5,75,0.00,,CLR,0.00,VWS V14.01,2013-01-06 09:30:00,
2013-01-06 03:35:00,25.3,18.5,30.23,NW,315,1.1,1.3,75,0.00,,CLR,0.00,VWS V14.01,2013-01-06 09:35:00,
2013-01-06 03:40:00,25.1,18.3,30.23,NE,45,0.4,1.8,75,0.00,,CLR,0.00,VWS V14.01,2013-01-06 09:40:00,
2013-01-06 03:45:00,25.0,18.2,30.23,NNW,338,2.7,2.7,75,0.00,,CLR,0.00,VWS V14.01,2013-01-06 09:45:00,
2013-01-06 03:50:00,25.0,18.2,30.24,NNW,338,0.7,2.7,75,0.00,,CLR,0.00,VWS V14.01,2013-01-06 09:50:00,
2013-01-06 03:55:00,24.8,18.0,30.23,NNW,338,0.4,3.4,75,0.00,,CLR,0.00,VWS V14.01,2013-01-06 09:55:00,
2013-01-06 04:01:00,24.6,17.8,30.24,NNW,338,0.9,1.3,75,0.00,,CLR,0.00,VWS V14.01,2013-01-06 10:01:00,
2013-01-06 04:10:00,24.4,17.6,30.24,NNW,338,0.2,1.8,75,0.00,,CLR,0.00,VWS V14.01,2013-01-06 10:10:00,
2013-01-06 04:15:00,24.2,17.4,30.24,North,0,0.4,2.7,75,0.00,,CLR,0.00,VWS V14.01,2013-01-06 10:15:00,
2013-01-06 04:20:00,24.2,17.4,30.24,NNW,338,1.8,2.7,75,0.00,,CLR,0.00,VWS V14.01,2013-01-06 10:20:00,
2013-01-06 04:25:00,23.9,17.1,30.24,NNE,22,2.0,2.5,75,0.00,,CLR,0.00,VWS V14.01,2013-01-06 10:25:00,
2013-01-06 04:30:00,23.9,17.1,30.25,NW,315,1.6,2.0,75,0.00,,CLR,0.00,VWS V14.01,2013-01-06 10:30:00,
2013-01-06 04:35:00,23.7,17.0,30.25,NE,45,0.4,1.6,75,0.00,,CLR,0.00,VWS V14.01,2013-01-06 10:35:00,
2013-01-06 04:40:00,23.7,17.0,30.25,NW,315,0.7,2.7,75,0.00,,CLR,0.00,VWS V14.01,2013-01-06 10:40:00,
2013-01-06 04:45:00,23.5,16.8,30.25,NNW,338,2.5,2.5,75,0.00,,CLR,0.00,VWS V14.01,2013-01-06 10:45:00,
2013-01-06 04:50:00,23.3,16.6,30.26,WNW,292,1.8,2.7,75,0.00,,CLR,0.00,VWS V14.01,2013-01-06 10:50:00,
2013-01-06 05:00:00,23.2,16.8,30.26,North,0,1.1,2.0,76,0.00,,CLR,0.00,VWS V14.01,2013-01-06 11:00:00,
2013-01-06 05:05:00,23.2,16.8,30.26,ENE,68,1.6,3.4,76,0.00,,CLR,0.00,VWS V14.01,2013-01-06 11:05:00,
2013-01-06 05:10:00,23.0,16.6,30.26,North,0,0.2,4.5,76,0.00,,CLR,0.00,VWS V14.01,2013-01-06 11:10:00,
2013-01-06 05:15:00,22.8,16.4,30.26,NNW,338,3.1,3.1,76,0.00,,CLR,0.00,VWS V14.01,2013-01-06 11:15:00,
2013-01-06 05:20:00,22.6,16.2,30.26,WNW,292,3.1,3.1,76,0.00,,CLR,0.00,VWS V14.01,2013-01-06 11:20:00,
2013-01-06 05:25:00,22.4,16.0,30.27,East,90,0.7,3.1,76,0.00,,CLR,0.00,VWS V14.01,2013-01-06 11:25:00,
2013-01-06 05:30:00,22.3,15.9,30.27,NNE,22,1.3,4.3,76,0.00,,CLR,0.00,VWS V14.01,2013-01-06 11:30:00,
2013-01-06 05:35:00,22.1,15.7,30.28,North,0,0.2,2.5,76,0.00,,CLR,0.00,VWS V14.01,2013-01-06 11:35:00,
2013-01-06 05:40:00,21.9,15.5,30.28,North,0,1.3,1.8,76,0.00,,CLR,0.00,VWS V14.01,2013-01-06 11:40:00,
2013-01-06 05:45:00,21.7,15.3,30.28,North,0,0.2,1.3,76,0.00,,CLR,0.00,VWS V14.01,2013-01-06 11:45:00,
2013-01-06 05:50:00,21.4,15.0,30.29,WNW,292,0.4,1.8,76,0.00,,CLR,0.00,VWS V14.01,2013-01-06 11:50:00,
2013-01-06 05:55:00,21.2,14.8,30.29,NNE,22,0.9,1.3,76,0.00,,CLR,0.00,VWS V14.01,2013-01-06 11:55:00,
2013-01-06 06:02:00,21.0,14.6,30.30,NE,45,0.0,0.4,76,0.00,,CLR,0.00,VWS V14.01,2013-01-06 12:02:00,
2013-01-06 06:10:00,21.0,14.6,30.30,NNE,22,0.4,1.6,76,0.00,,CLR,0.00,VWS V14.01,2013-01-06 12:10:00,
2013-01-06 06:15:00,21.0,14.9,30.30,NW,315,0.2,0.4,77,0.00,,CLR,0.00,VWS V14.01,2013-01-06 12:15:00,
2013-01-06 06:20:00,21.0,14.9,30.30,NNW,338,0.7,0.7,77,0.00,,CLR,0.00,VWS V14.01,2013-01-06 12:20:00,
2013-01-06 06:25:00,21.2,15.1,30.30,NNE,22,0.2,1.3,77,0.00,,BKN015,0.00,VWS V14.01,2013-01-06 12:25:00,
2013-01-06 06:30:00,21.0,14.9,30.31,North,0,0.2,0.9,77,0.00,,BKN015,0.00,VWS V14.01,2013-01-06 12:30:00,
2013-01-06 06:35:00,21.2,15.1,30.31,NNE,22,0.2,0.9,77,0.00,,BKN015,0.00,VWS V14.01,2013-01-06 12:35:00,
2013-01-06 06:40:00,21.2,15.1,30.31,NNW,338,0.0,3.1,77,0.00,,BKN015,0.00,VWS V14.01,2013-01-06 12:40:00,
2013-01-06 06:45:00,21.2,15.1,30.30,North,0,0.0,1.8,77,0.00,,BKN015,0.00,VWS V14.01,2013-01-06 12:45:00,
2013-01-06 06:50:00,21.2,15.1,30.31,NW,315,0.4,0.4,77,0.00,,BKN015,0.00,VWS V14.01,2013-01-06 12:50:00,
2013-01-06 06:55:00,21.2,15.1,30.30,North,0,2.2,2.2,77,0.00,,BKN015,0.00,VWS V14.01,2013-01-06 12:55:00,
2013-01-06 07:02:00,21.2,15.1,30.31,North,0,0.4,1.1,77,0.00,,BKN015,0.00,VWS V14.01,2013-01-06 13:02:00,
2013-01-06 07:10:00,21.2,15.1,30.31,North,0,0.4,0.4,77,0.00,,BKN015,0.00,VWS V14.01,2013-01-06 13:10:00,
2013-01-06 07:15:00,21.2,15.1,30.31,NW,315,2.5,2.5,77,0.00,,BKN015,0.00,VWS V14.01,2013-01-06 13:15:00,
2013-01-06 07:20:00,21.0,14.9,30.31,NE,45,0.4,2.5,77,0.00,,BKN015,0.00,VWS V14.01,2013-01-06 13:20:00,
2013-01-06 07:25:00,21.2,15.1,30.31,WSW,248,1.1,1.1,77,0.00,,OVC013,0.00,VWS V14.01,2013-01-06 13:25:00,
2013-01-06 07:30:00,21.0,14.9,30.32,NNW,338,0.2,1.1,77,0.00,,OVC013,0.00,VWS V14.01,2013-01-06 13:30:00,
2013-01-06 07:35:00,21.0,14.9,30.32,North,0,0.0,2.2,77,0.00,,OVC013,0.00,VWS V14.01,2013-01-06 13:35:00,
2013-01-06 07:40:00,21.0,14.9,30.32,NE,45,0.4,1.6,77,0.00,,OVC013,0.00,VWS V14.01,2013-01-06 13:40:00,
2013-01-06 07:45:00,20.8,14.7,30.32,NW,315,0.4,0.4,77,0.00,,OVC013,0.00,VWS V14.01,2013-01-06 13:45:00,
2013-01-06 07:50:00,20.8,14.7,30.33,NNW,338,0.0,0.9,77,0.00,,OVC013,0.00,VWS V14.01,2013-01-06 13:50:00,
2013-01-06 07:55:00,20.6,14.6,30.33,WSW,248,1.1,1.1,77,0.00,,OVC013,0.00,VWS V14.01,2013-01-06 13:55:00,
2013-01-06 08:02:00,20.6,14.6,30.33,SE,135,0.4,0.9,77,0.00,,OVC013,0.00,VWS V14.01,2013-01-06 14:02:00,
2013-01-06 08:10:00,20.6,14.6,30.33,NNW,338,0.4,1.8,77,0.00,,OVC013,0.00,VWS V14.01,2013-01-06 14:10:00,
2013-01-06 08:15:00,20.5,14.7,30.33,North,0,0.4,1.3,78,0.00,,OVC013,0.00,VWS V14.01,2013-01-06 14:15:00,
2013-01-06 08:20:00,20.6,14.8,30.33,NW,315,0.0,0.4,78,0.00,,OVC013,0.00,VWS V14.01,2013-01-06 14:20:00,
2013-01-06 08:25:00,20.6,14.8,30.33,NNW,338,0.4,0.4,78,0.00,,OVC013,0.00,VWS V14.01,2013-01-06 14:25:00,
2013-01-06 08:30:00,20.6,14.8,30.34,North,0,0.0,1.1,78,0.00,,OVC013,0.00,VWS V14.01,2013-01-06 14:30:00,
2013-01-06 08:35:00,21.0,15.2,30.34,NNW,338,0.0,0.4,78,0.00,,OVC013,0.00,VWS V14.01,2013-01-06 14:35:00,
2013-01-06 08:40:00,21.0,15.2,30.34,NW,315,1.3,1.3,78,0.00,,OVC013,0.00,VWS V14.01,2013-01-06 14:40:00,
2013-01-06 08:45:00,21.2,15.4,30.35,NE,45,0.2,1.3,78,0.00,,OVC013,0.00,VWS V14.01,2013-01-06 14:45:00,
2013-01-06 08:50:00,21.4,15.6,30.35,NNE,22,0.0,1.8,78,0.00,,OVC013,0.00,VWS V14.01,2013-01-06 14:50:00,
2013-01-06 08:55:00,21.7,16.2,30.35,NNE,22,0.2,2.2,79,0.00,,OVC013,0.00,VWS V14.01,2013-01-06 14:55:00,
2013-01-06 09:02:00,22.1,16.6,30.35,NW,315,0.9,1.8,79,0.00,,OVC013,0.00,VWS V14.01,2013-01-06 15:02:00,
2013-01-06 09:10:00,23.0,17.5,30.35,North,0,0.0,0.4,79,0.00,,OVC013,0.00,VWS V14.01,2013-01-06 15:10:00,
2013-01-06 09:15:00,23.5,18.0,30.35,NW,315,1.8,1.8,79,0.00,,OVC013,0.00,VWS V14.01,2013-01-06 15:15:00,
2013-01-06 09:20:00,23.9,18.0,30.36,North,0,0.2,1.8,78,0.00,,OVC013,0.00,VWS V14.01,2013-01-06 15:20:00,
2013-01-06 09:25:00,24.4,18.5,30.36,NW,315,1.8,1.8,78,0.00,,CLR,0.00,VWS V14.01,2013-01-06 15:25:00,
2013-01-06 09:30:00,24.8,18.6,30.36,East,90,0.4,2.5,77,0.00,,CLR,0.00,VWS V14.01,2013-01-06 15:30:00,
2013-01-06 09:35:00,25.3,19.1,30.36,NNE,22,1.1,2.0,77,0.00,,CLR,0.00,VWS V14.01,2013-01-06 15:35:00,
2013-01-06 09:40:00,25.5,19.0,30.37,North,0,0.0,1.6,76,0.00,,CLR,0.00,VWS V14.01,2013-01-06 15:40:00,
2013-01-06 09:50:00,26.0,19.5,30.37,North,0,1.3,3.4,76,0.00,,CLR,0.00,VWS V14.01,2013-01-06 15:50:00,
2013-01-06 09:55:00,26.2,19.4,30.38,NW,315,0.4,1.6,75,0.00,,CLR,0.00,VWS V14.01,2013-01-06 15:55:00,
2013-01-06 10:02:00,26.8,20.0,30.37,WNW,292,1.8,4.0,75,0.00,,CLR,0.00,VWS V14.01,2013-01-06 16:02:00,
2013-01-06 10:10:00,27.5,20.9,30.37,NE,45,0.4,0.9,76,0.00,,CLR,0.00,VWS V14.01,2013-01-06 16:10:00,
2013-01-06 10:15:00,27.8,20.9,30.38,West,270,1.8,1.8,75,0.00,,CLR,0.00,VWS V14.01,2013-01-06 16:15:00,
2013-01-06 10:20:00,28.2,21.3,30.38,West,270,0.2,3.8,75,0.00,,CLR,0.00,VWS V14.01,2013-01-06 16:20:00,
2013-01-06 10:25:00,28.6,21.4,30.38,NE,45,0.4,1.1,74,0.00,,CLR,0.00,VWS V14.01,2013-01-06 16:25:00,
2013-01-06 10:30:00,28.7,21.5,30.38,NW,315,1.6,1.6,74,0.00,,CLR,0.00,VWS V14.01,2013-01-06 16:30:00,
2013-01-06 10:35:00,28.9,21.4,30.38,NNW,338,1.8,1.8,73,0.00,,CLR,0.00,VWS V14.01,2013-01-06 16:35:00,
2013-01-06 10:40:00,29.3,21.7,30.38,ENE,68,0.4,1.8,73,0.00,,CLR,0.00,VWS V14.01,2013-01-06 16:40:00,
2013-01-06 10:45:00,29.6,22.0,30.38,North,0,1.1,1.1,73,0.00,,CLR,0.00,VWS V14.01,2013-01-06 16:45:00,
2013-01-06 10:50:00,29.8,22.2,30.38,WSW,248,1.8,2.5,73,0.00,,CLR,0.00,VWS V14.01,2013-01-06 16:50:00,
2013-01-06 10:55:00,30.4,22.5,30.38,NE,45,0.7,1.8,72,0.00,,CLR,0.00,VWS V14.01,2013-01-06 16:55:00,
2013-01-06 11:02:00,30.7,22.4,30.38,NE,45,0.9,0.9,71,0.00,,CLR,0.00,VWS V14.01,2013-01-06 17:02:00,
2013-01-06 11:10:00,30.9,22.6,30.38,North,0,0.4,0.4,71,0.00,,CLR,0.00,VWS V14.01,2013-01-06 17:10:00,
2013-01-06 11:15:00,31.4,23.1,30.38,North,0,0.4,0.4,71,0.00,,CLR,0.00,VWS V14.01,2013-01-06 17:15:00,
2013-01-06 11:20:00,31.8,23.5,30.38,North,0,0.4,0.4,71,0.00,,CLR,0.00,VWS V14.01,2013-01-06 17:20:00,
2013-01-06 11:25:00,32.2,23.9,30.38,North,0,0.4,0.4,71,0.00,,CLR,0.00,VWS V14.01,2013-01-06 17:25:00,
2013-01-06 11:30:00,32.7,24.4,30.38,North,0,0.4,0.4,71,0.00,,CLR,0.00,VWS V14.01,2013-01-06 17:30:00,
2013-01-06 11:35:00,32.9,24.2,30.37,North,0,0.4,0.4,70,0.00,,CLR,0.00,VWS V14.01,2013-01-06 17:35:00,
2013-01-06 11:40:00,33.2,24.5,30.38,North,0,0.4,0.4,70,0.00,,CLR,0.00,VWS V14.01,2013-01-06 17:40:00,
2013-01-06 11:45:00,33.4,24.3,30.37,North,0,0.4,0.4,69,0.00,,CLR,0.00,VWS V14.01,2013-01-06 17:45:00,
2013-01-06 11:50:00,33.8,24.7,30.37,North,0,0.4,0.4,69,0.00,,CLR,0.00,VWS V14.01,2013-01-06 17:50:00,
2013-01-06 11:55:00,34.0,24.6,30.37,North,0,0.4,0.4,68,0.00,,CLR,0.00,VWS V14.01,2013-01-06 17:55:00,
2013-01-06 12:02:00,34.1,24.7,30.37,North,0,0.4,0.4,68,0.00,,CLR,0.00,VWS V14.01,2013-01-06 18:02:00,
2013-01-06 12:10:00,34.3,24.5,30.36,North,0,0.4,0.4,67,0.00,,CLR,0.00,VWS V14.01,2013-01-06 18:10:00,
2013-01-06 12:15:00,34.5,24.7,30.36,North,0,0.4,0.4,67,0.00,,CLR,0.00,VWS V14.01,2013-01-06 18:15:00,
2013-01-06 12:20:00,34.9,25.1,30.36,North,0,0.4,0.4,67,0.00,,CLR,0.00,VWS V14.01,2013-01-06 18:20:00,
2013-01-06 12:25:00,35.0,24.8,30.36,North,0,0.4,0.4,66,0.00,,CLR,0.00,VWS V14.01,2013-01-06 18:25:00,
2013-01-06 12:30:00,35.2,24.6,30.35,NE,45,0.9,2.7,65,0.00,,CLR,0.00,VWS V14.01,2013-01-06 18:30:00,
2013-01-06 12:40:00,35.9,25.3,30.35,ENE,68,0.7,2.2,65,0.00,,CLR,0.00,VWS V14.01,2013-01-06 18:40:00,
2013-01-06 12:45:00,36.3,25.3,30.35,NNE,22,0.0,0.7,64,0.00,,CLR,0.00,VWS V14.01,2013-01-06 18:45:00,
2013-01-06 12:50:00,36.3,24.9,30.34,NNW,338,4.0,4.0,63,0.00,,CLR,0.00,VWS V14.01,2013-01-06 18:50:00,
2013-01-06 12:55:00,36.5,25.1,30.34,North,0,0.0,4.0,63,0.00,,CLR,0.00,VWS V14.01,2013-01-06 18:55:00,
2013-01-06 13:02:00,36.8,25.4,30.34,NW,315,1.1,1.6,63,0.00,,CLR,0.00,VWS V14.01,2013-01-06 19:02:00,
2013-01-06 13:10:00,37.0,25.6,30.34,North,0,0.0,0.7,63,0.00,,CLR,0.00,VWS V14.01,2013-01-06 19:10:00,
2013-01-06 13:15:00,37.4,25.6,30.33,WNW,292,0.9,0.9,62,0.00,,CLR,0.00,VWS V14.01,2013-01-06 19:15:00,
2013-01-06 13:20:00,37.6,25.8,30.33,WNW,292,0.4,0.9,62,0.00,,CLR,0.00,VWS V14.01,2013-01-06 19:20:00,
2013-01-06 13:25:00,37.6,25.0,30.33,NW,315,0.4,1.1,60,0.00,,CLR,0.00,VWS V14.01,2013-01-06 19:25:00,
2013-01-06 13:30:00,37.2,24.2,30.33,NW,315,0.4,0.4,59,0.00,,CLR,0.00,VWS V14.01,2013-01-06 19:30:00,
2013-01-06 13:35:00,37.4,25.2,30.33,WNW,292,2.5,2.5,61,0.00,,CLR,0.00,VWS V14.01,2013-01-06 19:35:00,
2013-01-06 13:40:00,37.7,25.1,30.33,East,90,0.4,2.5,60,0.00,,CLR,0.00,VWS V14.01,2013-01-06 19:40:00,
2013-01-06 13:45:00,37.9,25.3,30.33,East,90,0.4,0.4,60,0.00,,CLR,0.00,VWS V14.01,2013-01-06 19:45:00,
2013-01-06 13:52:00,37.9,24.9,30.33,East,90,0.4,0.4,59,0.00,,CLR,0.00,VWS V14.01,2013-01-06 19:52:00,
2013-01-06 14:02:00,38.8,25.7,30.32,East,90,0.4,0.4,59,0.00,,CLR,0.00,VWS V14.01,2013-01-06 20:02:00,
2013-01-06 14:10:00,38.6,24.7,30.33,East,90,0.4,0.4,57,0.00,,CLR,0.00,VWS V14.01,2013-01-06 20:10:00,
2013-01-06 14:13:00,38.8,24.9,30.33,East,90,0.4,0.4,57,0.00,,CLR,0.00,VWS V14.01,2013-01-06 20:13:00,
2013-01-06 14:20:00,39.5,25.1,30.32,East,90,0.4,0.4,56,0.00,,CLR,0.00,VWS V14.01,2013-01-06 20:20:00,
2013-01-06 14:25:00,39.7,24.9,30.33,East,90,0.4,0.4,55,0.00,,CLR,0.00,VWS V14.01,2013-01-06 20:25:00,
2013-01-06 14:30:00,39.9,25.1,30.32,East,90,0.4,0.4,55,0.00,,CLR,0.00,VWS V14.01,2013-01-06 20:30:00,
2013-01-06 14:35:00,40.1,25.2,30.32,East,90,0.4,0.4,55,0.00,,CLR,0.00,VWS V14.01,2013-01-06 20:35:00,
2013-01-06 14:40:00,40.3,25.4,30.32,East,90,0.4,0.4,55,0.00,,CLR,0.00,VWS V14.01,2013-01-06 20:40:00,
2013-01-06 14:45:00,40.3,25.0,30.32,East,90,0.4,0.4,54,0.00,,CLR,0.00,VWS V14.01,2013-01-06 20:45:00,
2013-01-06 14:50:00,40.1,24.8,30.32,East,90,0.4,0.4,54,0.00,,CLR,0.00,VWS V14.01,2013-01-06 20:50:00,
2013-01-06 14:55:00,40.3,24.5,30.32,East,90,0.4,0.4,53,0.00,,CLR,0.00,VWS V14.01,2013-01-06 20:55:00,
2013-01-06 15:03:00,40.1,24.4,30.32,East,90,0.0,0.4,53,0.00,,CLR,0.00,VWS V14.01,2013-01-06 21:03:00,
2013-01-06 15:10:00,40.3,24.5,30.32,NNE,22,0.4,0.9,53,0.00,,CLR,0.00,VWS V14.01,2013-01-06 21:10:00,
2013-01-06 15:15:00,40.4,24.6,30.32,SSW,202,1.1,2.2,53,0.00,,CLR,0.00,VWS V14.01,2013-01-06 21:15:00,
2013-01-06 15:20:00,39.9,23.7,30.32,NW,315,0.0,1.3,52,0.00,,CLR,0.00,VWS V14.01,2013-01-06 21:20:00,
2013-01-06 15:25:00,39.5,23.8,30.32,SW,225,0.4,0.4,53,0.00,,CLR,0.00,VWS V14.01,2013-01-06 21:25:00,
2013-01-06 15:30:00,39.2,23.5,30.32,SW,225,0.4,2.2,53,0.00,,CLR,0.00,VWS V14.01,2013-01-06 21:30:00,
2013-01-06 15:35:00,39.2,23.5,30.32,SSE,158,0.9,3.4,53,0.00,,CLR,0.00,VWS V14.01,2013-01-06 21:35:00,
2013-01-06 15:40:00,39.2,23.5,30.32,SE,135,0.2,0.9,53,0.00,,CLR,0.00,VWS V14.01,2013-01-06 21:40:00,
2013-01-06 15:45:00,39.2,23.1,30.32,SSW,202,0.0,0.9,52,0.00,,CLR,0.00,VWS V14.01,2013-01-06 21:45:00,
2013-01-06 15:50:00,39.0,22.9,30.32,SE,135,0.4,2.7,52,0.00,,CLR,0.00,VWS V14.01,2013-01-06 21:50:00,
2013-01-06 15:55:00,39.0,22.9,30.32,West,270,0.2,2.0,52,0.00,,CLR,0.00,VWS V14.01,2013-01-06 21:55:00,
2013-01-06 16:03:00,38.6,22.5,30.31,WSW,248,0.9,2.0,52,0.00,,CLR,0.00,VWS V14.01,2013-01-06 22:03:00,
2013-01-06 16:10:00,38.3,22.2,30.31,SW,225,0.2,1.3,52,0.00,,CLR,0.00,VWS V14.01,2013-01-06 22:10:00,
2013-01-06 16:15:00,38.1,22.0,30.31,South,180,0.4,1.3,52,0.00,,CLR,0.00,VWS V14.01,2013-01-06 22:15:00,
2013-01-06 16:20:00,37.9,21.9,30.31,West,270,0.0,1.6,52,0.00,,CLR,0.00,VWS V14.01,2013-01-06 22:20:00,
2013-01-06 16:25:00,37.6,21.6,30.31,WSW,248,0.9,1.1,52,0.00,,CLR,0.00,VWS V14.01,2013-01-06 22:25:00,
2013-01-06 16:30:00,37.4,21.4,30.31,West,270,1.6,2.5,52,0.00,,CLR,0.00,VWS V14.01,2013-01-06 22:30:00,
2013-01-06 16:35:00,37.2,21.2,30.31,WSW,248,0.4,2.5,52,0.00,,CLR,0.00,VWS V14.01,2013-01-06 22:35:00,
2013-01-06 16:40:00,37.0,21.5,30.31,South,180,0.0,0.9,53,0.00,,CLR,0.00,VWS V14.01,2013-01-06 22:40:00,
2013-01-06 16:45:00,36.7,21.2,30.31,SSW,202,0.0,0.0,53,0.00,,CLR,0.00,VWS V14.01,2013-01-06 22:45:00,
2013-01-06 16:50:00,36.5,21.0,30.31,SSW,202,0.4,1.3,53,0.00,,CLR,0.00,VWS V14.01,2013-01-06 22:50:00,
2013-01-06 16:55:00,36.1,20.6,30.31,SSW,202,0.0,0.7,53,0.00,,CLR,0.00,VWS V14.01,2013-01-06 22:55:00,
2013-01-06 17:03:00,35.8,20.4,30.31,SSW,202,0.0,0.0,53,0.00,,CLR,0.00,VWS V14.01,2013-01-06 23:03:00,
2013-01-06 17:10:00,35.4,20.4,30.31,SSW,202,0.0,0.4,54,0.00,,CLR,0.00,VWS V14.01,2013-01-06 23:10:00,
2013-01-06 17:15:00,35.0,20.0,30.31,WSW,248,0.9,0.9,54,0.00,,CLR,0.00,VWS V14.01,2013-01-06 23:15:00,
2013-01-06 17:20:00,34.7,19.8,30.31,SSW,202,0.0,0.9,54,0.00,,CLR,0.00,VWS V14.01,2013-01-06 23:20:00,
2013-01-06 17:25:00,34.5,20.0,30.31,SSW,202,0.0,0.0,55,0.00,,CLR,0.00,VWS V14.01,2013-01-06 23:25:00,
2013-01-06 17:30:00,34.1,19.6,30.31,SSW,202,0.0,0.0,55,0.00,,CLR,0.00,VWS V14.01,2013-01-06 23:30:00,
2013-01-06 17:35:00,33.8,19.4,30.32,SSW,202,0.0,0.0,55,0.00,,CLR,0.00,VWS V14.01,2013-01-06 23:35:00,
2013-01-06 17:40:00,33.2,19.2,30.31,SSW,202,0.0,0.0,56,0.00,,CLR,0.00,VWS V14.01,2013-01-06 23:40:00,
2013-01-06 17:45:00,32.9,18.9,30.32,SSE,158,0.0,0.2,56,0.00,,CLR,0.00,VWS V14.01,2013-01-06 23:45:00,
2013-01-06 17:50:00,32.3,18.4,30.32,SSE,158,0.0,0.0,56,0.00,,CLR,0.00,VWS V14.01,2013-01-06 23:50:00,
2013-01-06 17:55:00,31.8,17.9,30.32,SSE,158,0.0,0.0,56,0.00,,CLR,0.00,VWS V14.01,2013-01-06 23:55:00,
2013-01-06 18:03:00,31.3,17.9,30.32,SSE,158,0.0,0.0,57,0.00,,CLR,0.00,VWS V14.01,2013-01-07 00:03:00,
2013-01-06 18:10:00,30.7,17.7,30.32,SSE,158,0.0,0.0,58,0.00,,CLR,0.00,VWS V14.01,2013-01-07 00:10:00,
2013-01-06 18:15:00,30.4,17.4,30.33,SSE,158,0.0,0.0,58,0.00,,CLR,0.00,VWS V14.01,2013-01-07 00:15:00,
2013-01-06 18:20:00,30.0,17.4,30.32,SSE,158,0.0,0.0,59,0.00,,CLR,0.00,VWS V14.01,2013-01-07 00:20:00,
2013-01-06 18:25:00,29.6,17.0,30.33,SSE,158,0.0,0.0,59,0.00,,CLR,0.00,VWS V14.01,2013-01-07 00:25:00,
2013-01-06 18:30:00,29.3,17.1,30.33,SSE,158,0.0,0.0,60,0.00,,CLR,0.00,VWS V14.01,2013-01-07 00:30:00,
2013-01-06 18:35:00,28.9,16.8,30.33,SSE,158,0.0,0.0,60,0.00,,CLR,0.00,VWS V14.01,2013-01-07 00:35:00,
2013-01-06 18:40:00,28.7,17.0,30.33,SSE,158,0.0,0.0,61,0.00,,CLR,0.00,VWS V14.01,2013-01-07 00:40:00,
2013-01-06 18:45:00,28.4,16.7,30.32,SSE,158,0.0,0.0,61,0.00,,CLR,0.00,VWS V14.01,2013-01-07 00:45:00,
2013-01-06 18:50:00,28.2,16.9,30.32,WNW,292,0.0,0.0,62,0.00,,CLR,0.00,VWS V14.01,2013-01-07 00:50:00,
2013-01-06 18:55:00,28.0,16.7,30.32,WNW,292,0.0,0.0,62,0.00,,CLR,0.00,VWS V14.01,2013-01-07 00:55:00,
2013-01-06 19:03:00,27.7,16.4,30.33,WNW,292,0.0,0.0,62,0.00,,CLR,0.00,VWS V14.01,2013-01-07 01:03:00,
2013-01-06 19:10:00,27.5,16.6,30.32,WNW,292,0.0,0.0,63,0.00,,CLR,0.00,VWS V14.01,2013-01-07 01:10:00,
2013-01-06 19:15:00,27.1,16.6,30.33,NNW,338,0.0,0.0,64,0.00,,CLR,0.00,VWS V14.01,2013-01-07 01:15:00,
2013-01-06 19:20:00,26.9,16.4,30.32,NNW,338,0.0,0.0,64,0.00,,CLR,0.00,VWS V14.01,2013-01-07 01:20:00,
2013-01-06 19:25:00,26.9,16.4,30.32,NNW,338,0.0,0.0,64,0.00,,CLR,0.00,VWS V14.01,2013-01-07 01:25:00,
2013-01-06 19:30:00,26.8,16.3,30.32,NNW,338,0.0,0.0,64,0.00,,CLR,0.00,VWS V14.01,2013-01-07 01:30:00,
2013-01-06 19:35:00,26.8,16.6,30.32,NNW,338,0.0,0.0,65,0.00,,CLR,0.00,VWS V14.01,2013-01-07 01:35:00,
2013-01-06 19:40:00,26.4,16.2,30.32,NNW,338,0.0,0.0,65,0.00,,CLR,0.00,VWS V14.01,2013-01-07 01:40:00,
2013-01-06 19:45:00,26.2,16.1,30.32,NNW,338,0.0,0.0,65,0.00,,CLR,0.00,VWS V14.01,2013-01-07 01:45:00,
2013-01-06 19:50:00,26.0,16.2,30.32,NNW,338,0.0,0.0,66,0.00,,CLR,0.00,VWS V14.01,2013-01-07 01:50:00,
2013-01-06 19:55:00,26.0,16.2,30.32,NNW,338,0.0,0.2,66,0.00,,CLR,0.00,VWS V14.01,2013-01-07 01:55:00,
2013-01-06 20:03:00,25.7,15.9,30.31,NNW,338,0.0,0.0,66,0.00,,CLR,0.00,VWS V14.01,2013-01-07 02:03:00,
2013-01-06 20:10:00,25.5,16.1,30.31,NNW,338,0.0,0.0,67,0.00,,CLR,0.00,VWS V14.01,2013-01-07 02:10:00,
2013-01-06 20:15:00,25.3,15.9,30.31,North,0,0.0,0.2,67,0.00,,CLR,0.00,VWS V14.01,2013-01-07 02:15:00,
2013-01-06 20:20:00,25.3,16.2,30.31,North,0,0.0,0.0,68,0.00,,CLR,0.00,VWS V14.01,2013-01-07 02:20:00,
2013-01-06 20:25:00,25.3,16.2,30.31,North,0,0.0,0.0,68,0.00,,CLR,0.00,VWS V14.01,2013-01-07 02:25:00,
2013-01-06 20:30:00,25.1,16.0,30.31,North,0,0.0,0.0,68,0.00,,CLR,0.00,VWS V14.01,2013-01-07 02:30:00,
2013-01-06 20:35:00,25.0,16.3,30.31,North,0,0.0,0.0,69,0.00,,CLR,0.00,VWS V14.01,2013-01-07 02:35:00,
2013-01-06 20:40:00,25.0,16.3,30.31,North,0,0.0,0.0,69,0.00,,CLR,0.00,VWS V14.01,2013-01-07 02:40:00,
2013-01-06 20:45:00,24.8,16.1,30.31,North,0,0.0,0.0,69,0.00,,CLR,0.00,VWS V14.01,2013-01-07 02:45:00,
2013-01-06 20:50:00,24.6,16.2,30.31,North,0,0.0,0.0,70,0.00,,CLR,0.00,VWS V14.01,2013-01-07 02:50:00,
2013-01-06 20:55:00,24.6,16.2,30.31,North,0,0.0,0.0,70,0.00,,CLR,0.00,VWS V14.01,2013-01-07 02:55:00,
2013-01-06 21:03:00,24.6,16.2,30.30,North,0,0.0,0.0,70,0.00,,CLR,0.00,VWS V14.01,2013-01-07 03:03:00,
2013-01-06 21:10:00,24.6,16.2,30.30,North,0,0.0,0.0,70,0.00,,CLR,0.00,VWS V14.01,2013-01-07 03:10:00,
2013-01-06 21:15:00,24.6,16.2,30.30,North,0,0.0,0.0,70,0.00,,CLR,0.00,VWS V14.01,2013-01-07 03:15:00,
2013-01-06 21:20:00,24.6,16.5,30.30,North,0,0.0,0.4,71,0.00,,CLR,0.00,VWS V14.01,2013-01-07 03:20:00,
2013-01-06 21:25:00,24.6,16.5,30.30,North,0,0.0,0.7,71,0.00,,CLR,0.00,VWS V14.01,2013-01-07 03:25:00,
2013-01-06 21:30:00,24.6,16.5,30.30,North,0,0.0,0.4,71,0.00,,CLR,0.00,VWS V14.01,2013-01-07 03:30:00,
2013-01-06 21:35:00,24.6,16.5,30.30,North,0,0.0,0.0,71,0.00,,CLR,0.00,VWS V14.01,2013-01-07 03:35:00,
2013-01-06 21:40:00,24.6,16.5,30.30,North,0,0.0,0.4,71,0.00,,CLR,0.00,VWS V14.01,2013-01-07 03:40:00,
2013-01-06 21:45:00,24.6,16.5,30.30,North,0,0.0,0.0,71,0.00,,CLR,0.00,VWS V14.01,2013-01-07 03:45:00,
2013-01-06 21:50:00,24.6,16.5,30.30,North,0,0.0,0.0,71,0.00,,CLR,0.00,VWS V14.01,2013-01-07 03:50:00,
2013-01-06 21:55:00,24.6,16.9,30.30,North,0,0.0,0.0,72,0.00,,CLR,0.00,VWS V14.01,2013-01-07 03:55:00,
2013-01-06 22:03:00,24.6,16.9,30.30,SE,135,0.0,0.7,72,0.00,,CLR,0.00,VWS V14.01,2013-01-07 04:03:00,
2013-01-06 22:10:00,24.8,17.1,30.30,SSE,158,0.0,1.1,72,0.00,,CLR,0.00,VWS V14.01,2013-01-07 04:10:00,
2013-01-06 22:15:00,24.8,17.1,30.29,SSE,158,0.0,0.0,72,0.00,,CLR,0.00,VWS V14.01,2013-01-07 04:15:00,
2013-01-06 22:20:00,24.8,17.1,30.29,SSE,158,0.4,0.7,72,0.00,,CLR,0.00,VWS V14.01,2013-01-07 04:20:00,
2013-01-06 22:25:00,25.0,17.3,30.29,SE,135,0.0,1.1,72,0.00,,CLR,0.00,VWS V14.01,2013-01-07 04:25:00,
2013-01-06 22:30:00,25.1,17.4,30.29,SSE,158,0.4,2.2,72,0.00,,CLR,0.00,VWS V14.01,2013-01-07 04:30:00,
2013-01-06 22:35:00,25.3,17.5,30.29,SE,135,0.7,2.0,72,0.00,,CLR,0.00,VWS V14.01,2013-01-07 04:35:00,
2013-01-06 22:40:00,25.7,17.9,30.29,SSE,158,0.4,2.5,72,0.00,,CLR,0.00,VWS V14.01,2013-01-07 04:40:00,
2013-01-06 22:45:00,26.4,18.6,30.29,SSW,202,1.1,3.4,72,0.00,,CLR,0.00,VWS V14.01,2013-01-07 04:45:00,
2013-01-06 22:50:00,26.8,18.7,30.29,ESE,112,1.1,2.5,71,0.00,,CLR,0.00,VWS V14.01,2013-01-07 04:50:00,
2013-01-06 22:55:00,27.1,19.0,30.29,SSE,158,1.1,1.1,71,0.00,,CLR,0.00,VWS V14.01,2013-01-07 04:55:00,
2013-01-06 23:00:00,27.5,19.4,30.29,SE,135,1.1,2.2,71,0.00,,CLR,0.00,VWS V14.01,2013-01-07 05:00:00,
2013-01-06 23:03:00,27.5,19.0,30.29,SE,135,0.4,2.2,70,0.00,,CLR,0.00,VWS V14.01,2013-01-07 05:03:00,
2013-01-06 23:10:00,27.5,19.0,30.29,SSE,158,0.7,1.1,70,0.00,,CLR,0.00,VWS V14.01,2013-01-07 05:10:00,
2013-01-06 23:15:00,27.5,19.0,30.29,SE,135,0.4,1.3,70,0.00,,CLR,0.00,VWS V14.01,2013-01-07 05:15:00,
2013-01-06 23:20:00,27.5,19.0,30.28,South,180,0.4,0.7,70,0.00,,CLR,0.00,VWS V14.01,2013-01-07 05:20:00,
2013-01-06 23:25:00,27.5,19.0,30.28,South,180,0.4,1.1,70,0.00,,CLR,0.00,VWS V14.01,2013-01-07 05:25:00,
2013-01-06 23:30:00,27.3,18.8,30.29,SE,135,1.1,1.1,70,0.00,,CLR,0.00,VWS V14.01,2013-01-07 05:30:00,
2013-01-06 23:35:00,27.3,18.8,30.29,SE,135,1.1,1.1,70,0.00,,CLR,0.00,VWS V14.01,2013-01-07 05:35:00,
2013-01-06 23:40:00,27.3,18.8,30.28,ESE,112,1.3,1.3,70,0.00,,CLR,0.00,VWS V14.01,2013-01-07 05:40:00,
2013-01-06 23:45:00,27.3,18.8,30.28,SE,135,1.6,1.6,70,0.00,,CLR,0.00,VWS V14.01,2013-01-07 05:45:00,
2013-01-06 23:50:00,27.5,19.0,30.28,SSE,158,0.0,1.6,70,0.00,,CLR,0.00,VWS V14.01,2013-01-07 05:50:00,
2013-01-06 23:55:00,27.5,19.0,30.28,SSE,158,0.0,1.8,70,0.00,,CLR,0.00,VWS V14.01,2013-01-07 05:55:00,